Location: Beekmeers
(50.8953°N, 3.6968°E)
Time: 20:21:37
(UTC+00:00)

BlueWalker 3 - Visible Passes

Search period start: 19 January 2026 00:00
Search period end: 29 January 2026 00:00
Orbit: 451 x 463 km, 53.2° (Epoch: 19 January)

Date Brightness Start Highest point End Pass type
(mag) Time Alt. Az. Time Alt. Az. Time Alt. Az.
20 Jan 4.2 17:59:19 10° SSE 17:59:36 10° SE 17:59:36 10° SE visible
21 Jan 3.9 18:58:22 10° SW 18:59:45 21° SSW 18:59:45 21° SSW visible
22 Jan 2.8 18:23:09 10° SSW 18:26:02 32° SSE 18:26:02 32° SSE visible
23 Jan 3.0 17:47:58 10° SSW 17:51:03 28° SE 17:52:15 22° ESE visible
23 Jan 4.2 19:24:42 10° WSW 19:26:00 21° WSW 19:26:00 21° WSW visible
24 Jan 3.3 17:12:51 10° SSW 17:15:42 23° SE 17:18:23 11° E visible
24 Jan 2.3 18:49:16 10° WSW 18:52:08 55° WSW 18:52:08 55° WSW visible
25 Jan 1.6 18:13:51 10° WSW 18:17:24 75° SSE 18:18:12 50° E visible
25 Jan 5.0 19:51:29 10° W 19:51:56 13° W 19:51:56 13° W visible
26 Jan 1.9 17:38:25 10° SW 17:41:58 63° SSE 17:44:14 20° ENE visible
26 Jan 3.6 19:15:59 10° W 19:17:58 30° WNW 19:17:58 30° WNW visible
27 Jan 2.1 17:03:01 10° SW 17:06:31 53° SSE 17:10:00 10° ENE visible
27 Jan 1.9 18:40:28 10° W 18:43:56 62° NNW 18:43:56 62° NNW visible
28 Jan 1.8 18:04:56 10° W 18:08:29 67° NNW 18:09:53 34° ENE visible
28 Jan 4.6 19:42:41 10° WNW 19:43:37 17° WNW 19:43:37 17° WNW visible
